STARLINK-11273, 60913

Orbit data source: Space-Track

STARLINK-11273, 60913 is a payload satellite owned by SpaceX/Seattle (US) in LEO that was launched on Sat, 31 Aug 2024 UTC via an FALCON 9 launch vehicle from the Air Force Eastern Test Range (AFETR). Payload-class satellites include a variety of spacecraft equipped with specific instruments for various scientific and technological missions. These include communications satellites like Starlink; space stations such as the ISS; scientific satellites like the Hubble; Earth observation satellites from companies like Planet Labs, Umbra, and HawkEye 360; GPS; miniature CubeSats for education and research; and military/defense satellites.

Loading next visibility...
Identifier
60913, 2024-154L
Orbit
LEO
Country
Flag of USUS
Related business
Manufacturer
SpaceX/Seattle
Mission
Operational Commercial Communications
Bus & Motor
STARLINK V2MD, Unknown motor
Mass
960 kg wet, ~910 kg dry
Launch date (UTC)
2024-08-31 (2 years ago)
Launch vehicle
FALCON 9
Launch site
Air Force Eastern Test Range (AFETR)
Object type
Payload
Rocket body
Debris
Shape & HBR
Box + 2 Pan, 18.1 m
Radar Cross Section
36.964 m², Large (>1 m²)

Expand to show TLE details & history
Last TLE update: 15 hours ago

TLE from 15 hours ago
0 STARLINK-11273
1 60913U 24154L   26129.86361235 -.00000294  00000-0  24252-5 0  9995
2 60913  53.1592 189.6077 0000814  98.3830 261.7281 15.69703898 98110
Epoch: 2026-05-09T20:43Z
TLE epoch observation values (Epoch: 2026-05-09T20:43:36.107Z)
Latitude
0.00007°
Longitude
11.03236°
Altitude
360.738 km
Speed
7.694 km/s
True Right ascension
12h 38m 25s
True Declination
0° 00' 00"
Sunlit
Object was in full shadow at epoch
Visualization orbit readout
Latitude
Unknown
Longitude
Unknown
Altitude
Unknown
Speed
Unknown
Apparent Right ascension
Unknown
Apparent Declination
Unknown
Sunlit
N/A
Visualization observer readout
Local Sidereal Time
19:51:20
Azimuth
Unknown
Elevation
Unknown
Doppler factor
Unknown
Orbital elements
Apogee altitude
360.554 km
Perigee altitude
359.457 km
Semi-major axis
6,738.142 km
Eccentricity
0.00008
Inclination
53.1592°
RAAN
189.6077°
Arg. of periapsis
98.383°
True anomaly
261.71887°
Mean anomaly
261.7281°
Eccentric anomaly
261.72348°
Mean motion
3.92404 °/min
Orbital period
91.74 mins
BSTAR
0.0000024252
Loading maneuver chart data...
Computing Atmospheric mass density...
Loading historical data...
Loading historical data...
Loading historical data...
Loading historical data...
Loading historical data...
Loading historical data...
Loading historical data...

Documentation

Showing up to 5 results
|